This is the latest recevied weather packets stored in our database for station/object W5GBS-9. If no packets are shown the sender has not sent any weather packets the latest 10 day(s).
| Time | Temp. | Humidity | Pressure | Rain* | Wind** | Luminosity | Snow |
|---|---|---|---|---|---|---|---|
| 1787633962 | 30° C | 100% | 1013.6 hPa | 0 mm | - | - | - |
| 1787633242 | 30° C | 100% | 1013.7 hPa | 0 mm | - | - | - |
| 1787632521 | 30° C | 100% | 1013.5 hPa | 0 mm | - | - | - |
| 1787631800 | 30° C | 100% | 1013.6 hPa | 0 mm | - | - | - |
| 1787631079 | 30° C | 100% | 1013.5 hPa | 0 mm | - | - | - |
| 1787629638 | 30.56° C | 100% | 1013.3 hPa | 0 mm | - | - | - |
| 1787628917 | 30.56° C | 100% | 1013.1 hPa | 0 mm | - | - | - |
| 1787628197 | 31.11° C | 100% | 1013 hPa | 0 mm | - | - | - |
| 1787626755 | 31.11° C | 100% | 1012.5 hPa | 0 mm | - | - | - |
| 1787625318 | 31.67° C | 100% | 1012.2 hPa | 0 mm | - | - | - |
| 1787624593 | 32.22° C | 100% | 1012 hPa | 0 mm | - | - | - |
| 1787623152 | 32.78° C | 100% | 1011.4 hPa | 0 mm | - | - | - |
| 1787622432 | 33.33° C | - | - | 0 mm | - | - | - |
| 1787622431 | 33.33° C | 100% | 1011.2 hPa | 0 mm | - | - | - |
| 1787619548 | 35.56° C | 100% | 1010.9 hPa | 0 mm | - | - | - |
| 1787618828 | 36.11° C | 100% | 1010.8 hPa | 0 mm | - | - | - |
| 1787618107 | 36.67° C | 100% | 1010.8 hPa | 0 mm | - | - | - |
| 1787617386 | 36.67° C | 100% | 1010.8 hPa | 0 mm | - | - | - |
| 1787615945 | 37.22° C | 100% | 1010.7 hPa | 0 mm | - | - | - |
| 1787614503 | 37.78° C | 100% | 1010.7 hPa | 0 mm | - | - | - |
| 1787613062 | 38.33° C | 100% | 1010.8 hPa | 0 mm | - | - | - |
| 1787611621 | 38.33° C | 100% | 1010.7 hPa | 0 mm | - | - | - |
| 1787610900 | 38.33° C | 100% | 1010.7 hPa | 0 mm | - | - | - |
| 1787610179 | 38.89° C | 100% | 1010.8 hPa | 0 mm | - | - | - |
| 1787608017 | 38.33° C | 100% | 1011 hPa | 0 mm | - | - | - |
* Rain latest hour (hover to see other rain measurements)
** Current wind speed in m/s (hover to see current wind gust speed)